Printer-friendly version

IAU Minor Planet Center

Minor Planet Center

MPEC 2006-Y13 : 2006 YA

The following Minor Planet Electronic Circular may be linked-to from your own Web pages, but must not otherwise be redistributed electronically.


Read MPEC 2006-Y12 Read MPEC 2006-Y14


M.P.E.C. 2006-Y13                                Issued 2006 Dec. 17, 15:07 UT

     The Minor Planet Electronic Circulars contain information on unusual
         minor planets and routine data on comets.  They are published
   on behalf of Commission 20 of the International Astronomical Union by the
          Minor Planet Center, Smithsonian Astrophysical Observatory,
                          Cambridge, MA 02138, U.S.A.

             Prepared using the Tamkin Foundation Computer Network

                              MPC@CFA.HARVARD.EDU
          URL http://cfa-www.harvard.edu/iau/mpc.html  ISSN 1523-6714

                                    2006 YA

Observations:
     K06Y00A* C2006 12 16.24755 04 49 23.08 -07 15 37.9          19.4 V EY013703
     K06Y00A  C2006 12 16.26768 04 49 22.26 -07 13 31.3          19.3 V EY013703
     K06Y00A  C2006 12 16.27781 04 49 21.82 -07 12 25.9          19.1 V EY013703
     K06Y00A  C2006 12 16.34039 04 49 19.45 -07 05 47.6          18.9 V EY013703
     K06Y00A  C2006 12 16.34675 04 49 19.27 -07 05 07.4          19.1 V EY013703
     K06Y00A  C2006 12 16.34988 04 49 19.02 -07 04 45.9          18.7 V EY013703
     K06Y00A  C2006 12 16.94442 04 49 17.97 -05 59 11.8          19.0 R EY013176
     K06Y00A  C2006 12 16.94528 04 49 17.95 -05 59 06.0          19.0 R EY013176
     K06Y00A  C2006 12 16.94614 04 49 17.92 -05 59 00.3          19.1 R EY013176
     K06Y00A  C2006 12 16.94700 04 49 17.91 -05 58 54.1          18.9 R EY013176
     K06Y00A  C2006 12 16.94787 04 49 17.88 -05 58 48.3          18.8 R EY013176
     K06Y00A  C2006 12 17.15351 04 49 19.99 -05 34 45.3          19.2 V EY013G96
     K06Y00A  C2006 12 17.15404 04 49 19.98 -05 34 41.5          19.4 V EY013G96
     K06Y00A  C2006 12 17.15457 04 49 19.96 -05 34 37.5          19.6 V EY013G96
     K06Y00A  C2006 12 17.19391 04 49 18.77 -05 29 53.8          19.5 R EY013854
     K06Y00A  C2006 12 17.19966 04 49 18.43 -05 29 18.1          19.5 R EY013854
     K06Y00A  C2006 12 17.20541 04 49 18.24 -05 28 38.2          19.6 R EY013854

Observer details:
176 Observatori Astronomic de Consell.  Observers A. Lopez, R. Pacheco.
    0.41-m f/4 reflector + CCD.
703 Catalina Sky Survey.  Observer A. R. Gibbs.  Measurers E. C. Beshore,
    E. J. Christensen, G. J. Garradd, A. R. Gibbs, A. D. Grauer, R. E. Hill,
    R. A. Kowalski, S. M. Larson, R. H. McNaught.  0.68-m Schmidt + CCD.
854 Sabino Canyon Observatory, Tucson.  Observer J. E. McGaha.  0.36-m f/10.0
    Schmidt-Cassegrain + CCD.
G96 Mt. Lemmon Survey.  Observer E. J. Christensen.  Measurers E. C. Beshore,
    E. J. Christensen, G. J. Garradd, A. R. Gibbs, A. D. Grauer, R. E. Hill,
    R. A. Kowalski, S. M. Larson, R. H. McNaught.  1.5-m reflector + CCD.

Orbital elements:
2006 YA                                                  Earth MOID = 0.0486 AU
Epoch 2007 Apr. 10.0 TT = JDT 2454200.5                 MPC
M  35.59942              (2000.0)            P               Q
n   0.43777181     Peri.   27.76031     -0.48412599     -0.83435205
a   1.7177931      Node    92.28015     +0.74596610     -0.55101294
e   0.4164787      Incl.   15.29548     +0.45733642     +0.01553662
P   2.25           H   23.1           G   0.15           U   8
Residuals in seconds of arc
061216 703  0.5+  0.1+    061216 176  0.3-  0.2+    061217 G96  0.1-  0.6-
061216 703  0.1+  0.5-    061216 176  0.1-  0.1+    061217 G96  0.1-  0.3-
061216 703  0.5-  0.7+    061216 176  0.1-  0.1-    061217 854 (1.9+  6.0+)
061216 703  0.1+  0.2-    061216 176  0.2+  0.2+    061217 854  0.1-  1.0+
061216 703  0.9+  0.8-    061216 176  0.3+  0.0     061217 854  0.3+  0.2+
061216 703  1.2-  0.6+    061217 G96  0.2-  0.7-

Ephemeris:
2006 YA                  a,e,i = 1.72, 0.42, 15                  q = 1.0024
Date    TT    R. A. (2000) Decl.     Delta      r     Elong.  Phase     V
2006 12 11    04 50.07   -14 06.4    0.126    1.087   142.6    33.4    20.2
2006 12 13    04 49.79   -11 58.3    0.114    1.079   144.2    32.3    19.9
2006 12 15    04 49.52   -09 16.8    0.103    1.072   146.1    30.8    19.6
2006 12 17    04 49.29   -05 51.8    0.0927   1.064   148.5    28.9    19.3
2006 12 19    04 49.13   -01 30.0    0.0826   1.057   151.5    26.4    19.0
2006 12 21    04 49.08   +04 06.3    0.0732   1.051   155.0    23.4    18.6
2006 12 23    04 49.24   +11 18.3    0.0649   1.044   158.5    20.2    18.3
2006 12 25    04 49.73   +20 26.6    0.0581   1.038   160.5    18.4    18.0
2006 12 27    04 50.74   +31 38.7    0.0532   1.033   158.2    20.7    17.8
2006 12 29    04 52.69   +44 28.5    0.0507   1.028   150.8    27.8    17.9
2006 12 31    04 56.45   +57 47.2    0.0511   1.023   140.7    37.5    18.2
2007 01 02    05 04.60   +70 10.5    0.0541   1.019   130.4    47.3    18.6
2007 01 04    05 28.92   +80 40.7    0.0593   1.015   121.4    55.8    19.0
2007 01 06    09 36.47   +88 03.5    0.0662   1.012   114.1    62.5    19.5
2007 01 08    15 35.79   +83 29.3    0.0742   1.009   108.5    67.5    19.9
2007 01 10    16 05.41   +78 15.0    0.0830   1.007   104.2    71.2    20.2
2007 01 12    16 14.71   +74 01.3    0.0923   1.005   100.9    73.9    20.5
2007 01 14    16 19.00   +70 36.0    0.102    1.004    98.5    75.8    20.8
2007 01 16    16 21.32   +67 48.0    0.112    1.003    96.6    77.0    21.0
2007 01 18    16 22.64   +65 28.6    0.122    1.002    95.3    77.8    21.2
2007 01 20    16 23.37   +63 31.5    0.132    1.002    94.3    78.2    21.4

Kyle E. Smalley              (C) Copyright 2006 MPC           M.P.E.C. 2006-Y13

Read MPEC 2006-Y12 Read MPEC 2006-Y14


Our Web policy. Index to the CBAT/MPC/ICQ pages.


Valid HTML 4.01!